Location: Forcarei
(42.5879°N, 8.3520°W)
Time: 19:56:58
(UTC+02:00)

ISS - Visible Passes

Search period start: 14 May 2021 00:00
Search period end: 24 May 2021 00:00
Orbit: 417 x 422 km, 51.6° (Epoch: 14 May)

Date Brightness Start Highest point End Pass type
(mag) Time Alt. Az. Time Alt. Az. Time Alt. Az.
14 May -0.9 02:51:31 17° NNW 02:52:00 18° N 02:54:23 10° NE visible
14 May -1.3 04:26:52 10° NW 04:29:40 23° NNE 04:32:28 10° ENE visible
14 May -3.8 06:03:25 10° WNW 06:06:49 85° SW 06:10:11 10° SE visible
14 May -2.5 22:47:43 10° S 22:50:22 22° SE 22:53:00 10° E visible
15 May -2.9 00:23:41 10° WSW 00:26:58 51° NNW 00:30:16 10° NE visible
15 May -1.0 02:01:50 10° WNW 02:04:21 19° N 02:06:51 10° NE visible
15 May -1.0 03:39:27 10° NW 03:42:02 20° NNE 03:44:37 10° ENE visible
15 May -3.2 05:16:00 10° NW 05:19:21 60° NNE 05:22:41 10° ESE visible
15 May -3.7 23:36:07 10° WSW 23:39:29 80° NNW 23:42:51 10° NE visible
16 May -1.2 01:14:00 10° WNW 01:16:42 22° NNW 01:19:24 10° NE visible
16 May -0.8 02:51:57 10° NW 02:54:22 18° N 02:56:48 10° NE visible
16 May -2.4 04:28:37 10° NW 04:31:50 40° NNE 04:35:03 10° E visible
16 May -2.9 06:05:35 10° WNW 06:08:34 29° SW 06:11:32 10° SSE visible
16 May -3.8 22:48:44 10° SW 22:52:03 62° SE 22:55:23 10° ENE visible
17 May -1.5 00:26:10 10° W 00:29:05 27° NNW 00:32:00 10° NE visible
17 May -0.8 02:04:21 10° NW 02:06:41 17° N 02:09:02 10° NE visible
17 May -1.8 03:41:15 10° NW 03:44:16 30° NNE 03:47:18 10° E visible
17 May -3.6 05:19:16 21° WNW 05:21:13 49° SW 05:24:29 10° SE visible
17 May -2.0 23:38:22 10° W 23:41:29 35° NNW 23:44:38 10° NE visible
18 May -0.8 01:16:38 10° NW 01:19:00 18° N 01:21:23 10° NE visible
18 May -1.2 02:53:52 10° NW 02:55:46 21° N 02:55:46 21° N visible
18 May -2.8 22:50:40 10° WSW 22:53:56 50° NNW 22:57:14 10° NE visible
19 May -0.9 00:28:50 10° WNW 00:31:19 19° N 00:33:49 10° NE visible
19 May -1.1 02:06:26 10° NW 02:09:00 20° N 02:09:22 20° NNE visible
19 May -1.1 23:40:58 10° WNW 23:43:39 22° NNW 23:46:21 10° NE visible
20 May -0.9 01:18:55 10° NW 01:21:20 18° N 01:23:11 13° NE visible
20 May -0.8 02:55:34 10° NW 02:56:07 14° NW 02:56:07 14° NW visible
20 May -1.4 22:53:06 10° W 22:56:01 26° NNW 22:58:57 10° NE visible
21 May -0.9 00:31:18 10° NW 00:33:38 17° N 00:35:59 10° NE visible
21 May -1.3 02:08:11 10° NW 02:10:01 23° NNW 02:10:01 23° NNW visible
21 May -0.9 23:43:35 10° NW 23:45:56 17° N 23:48:18 10° NE visible
22 May -1.6 01:20:48 10° NW 01:23:36 24° NNE 01:23:58 23° NNE visible
22 May -1.0 22:55:45 10° WNW 22:58:14 19° N 23:00:44 10° NE visible
23 May -1.2 00:33:21 10° NW 00:35:56 20° NNE 00:37:56 13° NE visible
23 May -1.1 02:09:53 10° NW 02:10:53 18° NW 02:10:53 18° NW visible
23 May -1.1 23:45:49 10° NW 23:48:14 18° N 23:50:39 10° NE visible
